Location: Les Salelles
(44.4192°N, 4.1044°E)
Time: 19:29:26
(UTC+00:00)

RESURS DK-1 - Pass Details

Date: 20 January 2021
Orbit: 557 x 560 km, 69.9° (Epoch: 03 March)

Event Time Altitude Azimuth Distance (km) Brightness Sun altitude
Rises 16:59:02 0° 216° (SW) 2,730 7.1 -4.4°
Reaches altitude 10° 17:01:16 10° 221° (SW) 1,839 6.2 -4.8°
Maximum altitude 17:05:18 56° 300° (WNW) 669 3.0 -5.5°
Drops below altitude 10° 17:09:23 10° 19° (NNE) 1,851 4.6 -6.1°
Sets 17:11:37 0° 24° (NNE) 2,750 5.5 -6.5°
